[[{"header":{"parameterUnit":"m.s-1","parameterCategory":1,"la1":30.2991,"la2":30.254,"lo1":-89.0895,"lo2":-89.0444,"dy":0.0017,"dx":0.0017,"nx":28,"ny":28,"refTime":"2025-09-05T09:00:00:Z","depth":0,"parameterNumber":2,"parameterNumberName":"U-component_of_WINDS"},"data":[0,0,0,0,0,0,0,0,0,0,0,0,0,0,0,0,0,0,0,0,0,0,0,0,0,0,0,0,0,0,0,0,0,0,0,0,0,0,0,0,0,0,0,0,0,0,0,0,0,0,0,0,0,0,0,0,0,0,-0.5437,-0.5438,0,-0.5497,-0.5497,-0.5498,-0.5488,-0.5487,-0.5486,-0.5485,-0.5549,-0.5552,-0.5554,0,0,0,0,0,0,0,0,0,0,0,0,0,-0.5318,-0.532,-0.5437,-0.5438,-0.5438,-0.5497,-0.5497,-0.5498,-0.5488,-0.5487,-0.5486,-0.5485,-0.5548,-0.5551,-0.5555,0,0,0,0,0,0,0,0,0,0,0,0,0,-0.5373,-0.532,-0.5437,-0.544,-0.5441,-0.5496,-0.5497,-0.5498,-0.5489,-0.5487,-0.5486,-0.5484,-0.5547,-0.5551,-0.5555,-0.5611,0,0,-0.5567,-0.5569,0,0,0,0,0,0,0,0,-0.5369,-0.5377,-0.5439,-0.544,-0.5441,-0.5483,-0.5479,-0.5536,-0.5489,-0.5471,-0.5485,-0.5483,-0.5529,-0.5534,-0.5549,-0.5614,-0.5617,-0.5568,-0.557,-0.5572,-0.5573,0,0,0,0,0,0,0,-0.5366,-0.5374,-0.5461,-0.544,-0.5441,-0.544,-0.5446,-0.549,-0.5508,-0.5472,-0.5472,-0.5479,-0.5529,-0.5545,-0.555,-0.5618,-0.5568,-0.5571,-0.5574,-0.5575,-0.5733,-0.5735,0,0,0,0,0,0,-0.536,-0.5371,-0.5459,-0.5462,-0.5401,-0.5444,-0.545,-0.5472,-0.5507,-0.5511,-0.548,-0.5478,-0.5539,-0.5546,-0.5553,-0.5622,-0.5572,-0.5576,-0.5578,-0.5731,-0.5734,-0.5736,0,0,0,0,0,0,-0.5358,-0.5368,-0.5456,-0.5417,-0.5428,-0.5447,-0.5471,-0.5474,-0.5489,-0.5513,-0.5517,-0.5493,-0.5538,-0.5547,-0.5597,-0.5624,-0.5577,-0.5581,-0.5729,-0.5732,-0.5735,-0.5759,0,0,0,0,0,0,-0.5354,-0.5367,-0.5388,-0.5417,-0.543,-0.5499,-0.5473,-0.5476,-0.5496,-0.5494,-0.5526,-0.553,-0.5537,-0.5591,-0.5601,-0.5628,-0.5584,-0.5727,-0.5731,-0.5734,-0.5756,-0.5762,-0.5768,0,0,0,0,0,-0.535,-0.5393,-0.5389,-0.54,-0.5456,-0.55,-0.5508,-0.5514,-0.5498,-0.552,-0.5535,-0.5529,-0.5619,-0.5596,-0.5607,-0.5636,-0.5725,-0.573,-0.5733,-0.5753,-0.5761,-0.5768,0,0,0,0,0,0,-0.5367,-0.5397,-0.5393,-0.5446,-0.5471,-0.5498,-0.5526,-0.5522,-0.5553,-0.555,-0.5558,-0.5565,-0.5616,-0.5631,-0.5605,-0.5693,-0.567,-0.5676,-0.5681,-0.5689,-0.5695,-0.5691,-0.5587,0,0,0,0,0,-0.5377,-0.5409,-0.5434,-0.5478,-0.5491,-0.5506,-0.5526,-0.5529,-0.5555,-0.5566,-0.5584,-0.5611,-0.5645,-0.5668,-0.57,-0.5758,-0.5766,-0.5783,-0.5789,-0.5794,-0.58,-0.5833,-0.5841,-0.5749,-0.5749,-0.5749,0,0,-0.5398,-0.5418,-0.5438,-0.5482,-0.5502,-0.5536,-0.5515,-0.5552,-0.5578,-0.5571,-0.562,-0.5635,-0.5665,-0.5719,-0.5744,-0.5733,-0.5827,-0.5799,-0.5803,-0.5806,-0.5838,-0.5847,-0.5854,-0.5752,-0.5751,-0.5751,0,0,-0.5454,-0.5472,-0.5511,-0.5531,-0.556,-0.557,-0.558,-0.5608,-0.5618,-0.5666,-0.5662,-0.5694,-0.5752,-0.5774,-0.5793,-0.5858,-0.5854,-0.5868,-0.5899,-0.5931,-0.5939,-0.5945,-0.597,-0.5978,-0.5874,-0.5874,-0.5874,0,-0.5477,-0.5527,-0.5532,-0.557,-0.5591,-0.5585,-0.5626,-0.5645,-0.5684,-0.5699,-0.5686,-0.576,-0.578,-0.584,-0.5855,-0.587,-0.5883,-0.5865,-0.5937,-0.5944,-0.595,-0.5973,-0.5982,-0.5876,-0.5875,-0.5875,-0.5875,0,-0.5554,-0.559,-0.5619,-0.5656,-0.5679,-0.5718,-0.5731,-0.5754,-0.5755,-0.5767,-0.5817,-0.584,-0.5878,-0.5892,-0.5894,-0.5953,-0.5946,-0.5935,-0.5912,-0.596,-0.5983,-0.5991,-0.5878,-0.5877,-0.5877,-0.5876,0,0,-0.5624,-0.5663,-0.5673,-0.5691,-0.5723,-0.5751,-0.579,-0.5827,-0.5847,-0.5874,-0.5909,-0.5958,-0.5949,-0.597,-0.5974,-0.6002,-0.6054,-0.5988,-0.5989,-0.6001,-0.6122,-0.6131,-0.6141,-0.6051,-0.6052,-0.6054,-0.612,0,-0.5684,-0.5753,-0.5759,-0.5821,-0.5855,-0.585,-0.5885,-0.5909,-0.5921,-0.5952,-0.5966,-0.6002,-0.5985,-0.5998,-0.6025,-0.6042,-0.6078,-0.6037,-0.6084,-0.6086,-0.6078,-0.6153,-0.6162,-0.6223,-0.6128,-0.613,-0.6131,0,-0.5763,-0.5792,-0.5858,-0.5886,-0.59,-0.5931,-0.5966,-0.5995,-0.6023,-0.6029,-0.6053,-0.6054,-0.6096,-0.6071,-0.613,-0.6101,-0.6121,-0.6132,-0.6135,-0.6141,-0.6112,-0.6162,-0.6243,-0.6253,-0.6144,-0.6143,-0.6142,0,-0.5809,-0.5864,-0.5911,-0.5925,-0.5959,-0.5981,-0.5996,-0.6022,-0.6044,-0.6074,-0.6089,-0.6124,-0.6143,-0.6171,-0.6182,-0.6162,-0.6241,-0.6216,-0.6249,-0.6249,-0.6267,-0.6266,-0.6353,-0.6277,-0.6277,-0.6277,-0.6277,0,-0.5876,-0.5917,-0.5932,-0.5961,-0.6007,-0.6014,-0.6059,-0.6073,-0.6097,-0.6129,-0.6127,-0.6158,-0.6169,-0.6202,-0.6211,-0.6259,-0.6268,-0.6276,-0.6278,-0.6277,-0.6276,-0.6291,-0.6287,-0.6279,-0.6279,-0.6278,-0.6278,0,-0.5935,-0.5947,-0.5998,-0.6025,-0.6033,-0.6066,-0.609,-0.6119,-0.613,-0.6171,-0.6182,-0.62,-0.6239,-0.6252,-0.6299,-0.6304,-0.6361,-0.6359,-0.6352,-0.6353,-0.6385,-0.6383,-0.6487,-0.6502,-0.6414,-0.6415,-0.6416,0,-0.5978,-0.601,-0.604,-0.6062,-0.6077,-0.6112,-0.6134,-0.6142,-0.6165,-0.6199,-0.6224,-0.6262,-0.6294,-0.6356,-0.6375,-0.6411,-0.641,-0.6444,-0.6416,-0.6414,-0.6413,-0.6411,-0.6415,-0.645,-0.6451,-0.6452,-0.6452,0,-0.6054,-0.6058,-0.609,-0.6123,-0.615,-0.6177,-0.6203,-0.6221,-0.6233,-0.6259,-0.6299,-0.6323,-0.6371,-0.6409,-0.6446,-0.6463,-0.6461,-0.6461,-0.6471,-0.6471,-0.6466,-0.6471,-0.6368,-0.6459,-0.6458,-0.6458,-0.6457,-0.6457,-0.6108,-0.6136,-0.6162,-0.6197,-0.6217,-0.6242,-0.6271,-0.6285,-0.6318,-0.6357,-0.636,-0.6403,-0.6431,-0.648,-0.6499,-0.6533,-0.6524,-0.6538,-0.6541,-0.6545,-0.6548,-0.6459,-0.654,-0.654,-0.654,-0.6539,-0.6539,0,-0.6185,-0.6201,-0.6233,-0.627,-0.6298,-0.6291,-0.632,-0.6345,-0.6382,-0.6408,-0.6438,-0.6484,-0.6522,-0.6543,-0.6581,-0.6604,-0.6604,-0.6614,-0.6613,-0.6617,-0.6554,-0.6542,-0.6614,-0.6614,-0.6614,-0.6614,-0.6614,-0.6614,-0.6228,-0.6275,-0.6283,-0.6341,-0.6357,-0.6398,-0.6416,-0.6439,-0.6459,-0.651,-0.6541,-0.6554,-0.6579,-0.6618,-0.6653,-0.6658,-0.6673,-0.6684,-0.6689,-0.6629,-0.6622,-0.6614,-0.6604,-0.6687,-0.6687,-0.6749,-0.675,-0.675]},{"header":{"parameterUnit":"m.s-1","parameterCategory":1,"la1":30.2991,"la2":30.254,"lo1":-89.0895,"lo2":-89.0444,"dy":0.0017,"dx":0.0017,"nx":28,"ny":28,"refTime":"2025-09-05T09:00:00:Z","depth":0,"parameterNumber":3,"parameterNumberName":"V-component_of_WINDS"},"data":[0,0,0,0,0,0,0,0,0,0,0,0,0,0,0,0,0,0,0,0,0,0,0,0,0,0,0,0,0,0,0,0,0,0,0,0,0,0,0,0,0,0,0,0,0,0,0,0,0,0,0,0,0,0,0,0,0,0,0.0691,0.069,0,0.0631,0.063,0.0629,0.0588,0.0587,0.0587,0.0587,0.0521,0.0519,0.0518,0,0,0,0,0,0,0,0,0,0,0,0,0,0.0765,0.0764,0.0691,0.069,0.069,0.0631,0.063,0.0629,0.0588,0.0587,0.0587,0.0587,0.0521,0.0519,0.0518,0,0,0,0,0,0,0,0,0,0,0,0,0,0.0722,0.0764,0.0691,0.0662,0.0659,0.0631,0.063,0.0629,0.0588,0.0587,0.0587,0.0586,0.0522,0.052,0.0517,0.0513,0,0,0.0511,0.051,0,0,0,0,0,0,0,0,0.0724,0.0719,0.0667,0.0664,0.066,0.0616,0.0632,0.059,0.0588,0.0615,0.0587,0.0586,0.0553,0.0548,0.0537,0.051,0.0507,0.0511,0.0509,0.0508,0.0508,0,0,0,0,0,0,0,0.0727,0.0722,0.0667,0.0666,0.0662,0.065,0.0643,0.0624,0.0587,0.0612,0.0609,0.0603,0.0551,0.054,0.0536,0.0506,0.0511,0.0509,0.0507,0.0506,0.047,0.047,0,0,0,0,0,0,0.0736,0.0724,0.0669,0.0665,0.0692,0.0649,0.0642,0.0631,0.0587,0.058,0.0603,0.0601,0.0544,0.0538,0.0533,0.0524,0.0508,0.0506,0.0505,0.047,0.047,0.0471,0,0,0,0,0,0,0.0737,0.0731,0.0671,0.0694,0.0685,0.0648,0.0636,0.063,0.0619,0.058,0.0573,0.0599,0.0543,0.0536,0.0518,0.0521,0.0505,0.0503,0.0469,0.047,0.047,0.0506,0,0,0,0,0,0,0.074,0.0732,0.0731,0.0694,0.0684,0.0659,0.0637,0.0629,0.0616,0.0612,0.0574,0.0568,0.0542,0.0522,0.0516,0.0518,0.0501,0.0469,0.047,0.047,0.0505,0.0508,0.0511,0,0,0,0,0,0.0743,0.0743,0.0731,0.0725,0.0683,0.066,0.0654,0.0626,0.0616,0.0614,0.0589,0.0569,0.0522,0.052,0.0514,0.0515,0.0469,0.0469,0.047,0.0503,0.0507,0.0511,0,0,0,0,0,0,0.078,0.0738,0.0724,0.0713,0.0691,0.0653,0.0649,0.0631,0.061,0.0607,0.0572,0.0564,0.0549,0.053,0.0529,0.0507,0.0493,0.0492,0.052,0.0524,0.0527,0.0531,0.05,0,0,0,0,0,0.0788,0.0774,0.0737,0.073,0.072,0.0687,0.0675,0.0656,0.063,0.062,0.0594,0.0568,0.0547,0.0535,0.0514,0.0502,0.0492,0.0499,0.0502,0.0505,0.0505,0.0495,0.0498,0.0473,0.0473,0.0473,0,0,0.0802,0.0777,0.077,0.0737,0.0717,0.0702,0.0679,0.0664,0.0652,0.0617,0.0599,0.0579,0.0548,0.0533,0.0525,0.0516,0.0509,0.0506,0.0508,0.0506,0.0496,0.0499,0.0501,0.0474,0.0474,0.0474,0,0,0.082,0.0801,0.0793,0.0773,0.0744,0.0721,0.072,0.0684,0.067,0.0651,0.0625,0.0609,0.0574,0.0553,0.0538,0.0547,0.0527,0.0541,0.0557,0.0549,0.055,0.0552,0.0554,0.0555,0.0541,0.0541,0.0541,0,0.0841,0.0819,0.079,0.0777,0.0763,0.0732,0.0723,0.0705,0.0669,0.0659,0.0651,0.0606,0.0584,0.0562,0.0565,0.0554,0.0549,0.0545,0.0553,0.0554,0.0555,0.0556,0.0557,0.0543,0.0543,0.0543,0.0543,0,0.0845,0.083,0.0827,0.0795,0.078,0.0769,0.0737,0.0725,0.0707,0.0685,0.0665,0.0637,0.0609,0.0603,0.0584,0.0578,0.0574,0.056,0.0544,0.056,0.056,0.0561,0.0546,0.0545,0.0545,0.0544,0,0,0.0885,0.0838,0.0837,0.0821,0.0786,0.0773,0.076,0.0734,0.0723,0.07,0.0686,0.0658,0.0644,0.0627,0.0605,0.0598,0.0606,0.0584,0.0583,0.0588,0.0596,0.0606,0.0608,0.0593,0.0593,0.0593,0.0598,0,0.0897,0.0873,0.0847,0.0831,0.0816,0.0786,0.0774,0.075,0.073,0.0712,0.0688,0.0668,0.0652,0.0641,0.0633,0.0607,0.0607,0.0606,0.0578,0.0577,0.0586,0.0608,0.0619,0.0626,0.0598,0.0598,0.0598,0,0.0908,0.0887,0.087,0.0836,0.0828,0.0818,0.0791,0.0776,0.0747,0.0733,0.0713,0.0691,0.0673,0.066,0.0635,0.0635,0.0622,0.0607,0.0606,0.0602,0.0588,0.0603,0.0627,0.0628,0.0599,0.0599,0.0599,0,0.0938,0.0905,0.089,0.0878,0.0838,0.0831,0.0814,0.0785,0.0771,0.0747,0.0737,0.0711,0.0697,0.0676,0.0647,0.064,0.0623,0.0608,0.0609,0.061,0.0606,0.0607,0.0627,0.0599,0.0599,0.0599,0.0599,0,0.0953,0.0944,0.0903,0.0894,0.0882,0.0851,0.0839,0.0819,0.0794,0.0779,0.0751,0.0737,0.07,0.0681,0.0657,0.0639,0.0632,0.0619,0.0612,0.0621,0.0622,0.0611,0.0609,0.06,0.06,0.06,0.06,0,0.0984,0.0957,0.0938,0.0902,0.0892,0.0885,0.0853,0.0842,0.0819,0.0801,0.0794,0.0759,0.0735,0.0704,0.067,0.0654,0.0638,0.0628,0.0648,0.0644,0.0646,0.0646,0.0659,0.0659,0.0633,0.0633,0.0633,0,0.0995,0.0987,0.095,0.0939,0.0923,0.0905,0.089,0.0859,0.0845,0.0812,0.0804,0.0779,0.0757,0.072,0.069,0.0663,0.0653,0.0659,0.0648,0.0657,0.0651,0.0652,0.065,0.0662,0.0662,0.0663,0.0663,0,0.1018,0.1005,0.0986,0.0962,0.0945,0.0924,0.0902,0.0894,0.0858,0.0843,0.0819,0.0802,0.0768,0.0742,0.0712,0.0692,0.0671,0.0667,0.0665,0.0673,0.0684,0.0677,0.0654,0.0666,0.0666,0.0666,0.0665,0.0665,0.1038,0.103,0.1002,0.0981,0.0961,0.0941,0.0929,0.0905,0.0885,0.0856,0.0839,0.0815,0.0785,0.0743,0.0723,0.0703,0.0695,0.0693,0.0692,0.0692,0.0695,0.0688,0.0698,0.0697,0.0697,0.0697,0.0697,0,0.1059,0.1039,0.1021,0.0991,0.0974,0.0958,0.0932,0.0918,0.0899,0.0874,0.0853,0.0824,0.0799,0.0767,0.0739,0.0729,0.0719,0.0723,0.0723,0.0718,0.0704,0.0708,0.0732,0.0732,0.0732,0.0732,0.0732,0.0732,0.1067,0.1051,0.1034,0.1008,0.0988,0.0966,0.0952,0.0933,0.0912,0.0883,0.0862,0.0842,0.0814,0.0783,0.0759,0.075,0.074,0.0747,0.0735,0.0722,0.0719,0.0716,0.0719,0.0746,0.0746,0.075,0.0751,0.0751]}]]